{"data":{"norad_id":64959,"epoch":"2026-09-21T22:25:23.824128Z","epoch_age_seconds":44311,"freshness":"FRESH","line1":"1 64959U 25159D   26264.93430352 -.00000066  00000+0 -18746-3 0  9996","line2":"2 64959  86.4920 249.7951 0001990  86.8765 273.2596 13.24401765 55939","mean_motion":13.24401765,"eccentricity":0.000199,"inclination_deg":86.492,"raan_deg":249.7951,"arg_perigee_deg":86.8765,"mean_anomaly_deg":273.2596,"bstar":-0.00018746,"rev_number":5593,"period_min":108.72833592154,"perigee_km":1166.4517940278,"apogee_km":1169.4551380333,"semimajor_km":7546.0904660305,"source":"CELESTRAK","updated_at":"2026-09-22T09:00:30.061652Z"}}